Flag for U.S.A. Weather past 2 weeks in New York, New York, U.S.A.

Now
74 °F

More clouds than sun.


Feels Like: 76 °F
Forecast: 72 / 81 °F
Wind: 3 mph from North

Location: New York City - Central Park

Current Time: Jul 24, 2014 at 11:40:21 AM

Latest Report: Jul 24, 2014 at 10:51 AM


Visibility: N/A

Pressure: 29.87 "Hg

Humidity: 69%

Dew point: 63 °F

Location of New YorkLocation

Historic Weather in New York — Graph

°F

New York temperature yesterday

Maximum temperature yesterday: 86 °F (at 12:51 PM)
Minimum temperature yesterday: 73 °F (at 4:51 AM)
Average temperature yesterday: 80 °F

Past Weeks' High & Low Weather Summary

 TemperatureHumidityPressure
High86 °F (Jul 9, 1:51 PM)97% (Jul 14, 2:51 AM)30.25 "Hg (Jul 14, 2:51 AM)
Low65 °F (Jul 18, 5:51 AM)28% (Jul 19, 4:51 AM)29.74 "Hg (Jul 15, 5:51 PM)
Average75 °F65%30.02 "Hg
* Reported Jul 9 10:51 AM — Jul 24 10:51 AM, New York, Weather by CustomWeather, © 2014

Note: Actual official high and low records may vary slightly from our data, if they occured in-between our weather recording intervals... More about our weather records

Advertising

New York weather history for previous 24 hours

 ConditionsComfort  
Time TempWeatherWind HumidityBarometerVisibility
10:51 AM
Jul 24
74 °FMore clouds than sun.3 mph69%29.87 "HgN/A
9:51 AM74 °FMostly cloudy.6 mph69%29.85 "HgN/A
8:51 AM74 °FPartly sunny.3 mph71%29.85 "Hg10 mi
7:51 AM72 °FScattered clouds.3 mph78%29.84 "Hg10 mi
6:51 AM72 °FPartly sunny.5 mph76%29.83 "Hg10 mi
5:51 AM73 °FOvercast.3 mph71%29.82 "Hg10 mi
4:51 AM73 °FOvercast.N/A74%29.82 "Hg10 mi
3:51 AM73 °FPassing clouds.N/A79%29.80 "Hg10 mi
2:51 AM74 °FPassing clouds.3 mph79%29.80 "Hg10 mi
1:51 AM74 °FPassing clouds.No wind82%29.80 "Hg10 mi
12:51 AM75 °FClear.3 mph82%29.80 "Hg10 mi
11:51 PM
Jul 23
74 °FFog.No wind94%29.81 "Hg4 mi
10:51 PM75 °FLight rain. Fog.5 mph90%29.82 "Hg6 mi
9:51 PM74 °FLight rain. Fog.6 mph91%29.84 "Hg5 mi
8:51 PM76 °FHeavy rain. Broken clouds.5 mph82%29.83 "Hg1 mi
7:51 PM86 °FBroken clouds.8 mph59%29.78 "Hg10 mi
6:51 PM84 °FPassing clouds.5 mph65%29.76 "Hg9 mi
5:51 PM85 °FBroken clouds.N/A65%29.78 "Hg10 mi
4:51 PM85 °FPartly sunny.N/A65%29.79 "Hg10 mi
3:51 PM86 °FPartly sunny.6 mph63%29.81 "Hg10 mi
2:51 PM85 °FPartly sunny.3 mph63%29.85 "Hg10 mi
1:51 PM85 °FPartly sunny.7 mph65%29.87 "Hg9 mi
12:51 PM86 °FPassing clouds.6 mph61%29.88 "Hg9 mi
11:51 AM85 °FSunny.6 mph63%29.90 "Hg9 mi
Weather by CustomWeather, © 2014

See weather overviewHow to use our weather pages